ELEKTRON 3 DEB, 831

Orbit data source: Space-Track

ELEKTRON 3 DEB, 831 is space debris in LEO originally from a launch on Fri, 10 Jul 1964 UTC launched from the Tyuratam Missile And Space Complex (TTMTR). Debris objects in space refer to the collection of defunct objects orbiting the Earth. Examples of debris include non-operational satellites, rocket bodies, and fragments generated from explosions, collisions, or faulty payload assembly.

Loading next visibility...
Identifier
831, 1964-038C
Orbit
LEO
Country
Flag of CISCIS
Related business
Manufacturer
OKB-1
Mission
Spacecraft
Bus & Motor
ADAPTER, Unknown motor
Mass
Unknown
Launch date (UTC)
1964-07-10 (61 years ago)
Launch vehicle
Unknown
Launch site
Tyuratam Missile And Space Complex (TTMTR)
Object type
Payload
Rocket body
Debris
Shape & HBR
Unknown
Radar Cross Section
Medium (>0.1 m² and <1 m²)

Expand to show TLE details & history
Last TLE update: 15 hours ago

TLE from 15 hours ago
0 ELEKTRON 3 DEB
1 00831U 64038C   25260.13910379  .00010850  00000-0  10896-2 0  9991
2 00831  60.6784 170.1191 1283771 243.6260 102.7458 12.70511317331076
Epoch: 2025-09-17T03:20Z
TLE epoch observation values (Epoch: 2025-09-17T03:20:18.567Z)
Latitude
-0.00006°
Longitude
123.72236°
Altitude
1,716.59 km
Speed
6.866 km/s
True Right ascension
11h 20m 28s
True Declination
0° 00' 00"
Sunlit
Object was in daylight at epoch
Visualization orbit readout
Latitude
Unknown
Longitude
Unknown
Altitude
Unknown
Speed
Unknown
Apparent Right ascension
Unknown
Apparent Declination
Unknown
Sunlit
N/A
Visualization observer readout
Local Sidereal Time
10:59:45
Azimuth
Unknown
Elevation
Unknown
Doppler factor
Unknown
Orbital elements
Apogee altitude
2,374.891 km
Perigee altitude
383.201 km
Semi-major axis
7,757.183 km
Eccentricity
0.12838
Inclination
60.6784°
RAAN
170.1191°
Arg. of periapsis
243.626°
True anomaly
116.47122°
Mean anomaly
102.7458°
Eccentric anomaly
109.67197°
Mean motion
3.17678 °/min
Orbital period
113.32 mins
BSTAR
0.0010896
Loading maneuver chart data...
Computing Atmospheric mass density...
Loading historical data...
Loading historical data...
Loading historical data...
Loading historical data...
Loading historical data...
Loading historical data...
Loading historical data...

Documentation

Showing up to 5 results
|